Location: Nelson
(41.2830°S, 173.2830°E)
Time: 20:10:46
(UTC+13:00)

H-2A R/B - Pass Details

Date: 24 January 2019
Orbit: 734 x 836 km, 98.3° (Epoch: 21 February)

Event Time Altitude Azimuth Distance (km) Brightness Sun altitude
Rises 22:35:10 0° 164° (SSE) 3,264 5.7 -16.0°
Reaches altitude 10° 22:37:33 10° 160° (SSE) 2,317 4.8 -16.3°
Maximum altitude 22:42:36 62° 79° (E) 851 2.0 -17.0°
Enters shadow 22:45:38 23° 5° (N) 1,550 3.1 -17.4°
